Погода в Васильевском Мхе

Россия / Тверская область     57°00′56″N   35°55′01″E
темп.,
°C
ветер,
м/с
пор.,
м/с
влажн.,
%
обл.,
%
осадки,
мм/ч
давл.,
гПа
погр.,
м
29 января, сб
сб2900:00−6юв279687 0.5 1002226
03:00−7юв2597100 0.8 1003116
06:00−8ююв139895 0.1 100366
09:00−9ююз119791 0.3 100532
12:00−4сз249490 0.3 1005214
15:00−4сз3591100 0.4 1006442
18:00−5сз2592100 0.1 1006298
21:00−6з2292100 0.1 100566
30 января, вс
вс3000:00−6ю2595100 0.1 1002216
03:00−6ю3995100 0.1 999550
06:00−7ююв51294100 0.1 995465
09:00−7ююв51491100 0.1 993516
12:00−5ююв51494100 0.3 991675
15:00−4ююв51294100 1.1 990765
18:00−4ююв51195100 0.8 990683
21:00−5юв4109599 1.1 991527
31 января, пн
пн3100:00−5юв4996100 0.5 992456
03:00−5юв3996100 0.9 992397
06:00−6юв389691 0.3 992253
09:00−7вюв379699 0.5 993196
12:00−4вюв3794100 0.1 992330
15:00−3вюв3795100 0.4 992418
18:00−3в3996100 0.2 992521
21:00−3всв3997100 1.3 991465
1 февраля, вт
вт100:00−3всв3797100 1.0 990371
03:00−3ссв1398100 2.1 990169
06:00−5зсз1298100 0.6 99041
09:00−5з3696100 1.1 991263
12:00−4зюз379596 0.3 992403
15:00−3зюз4895100 0.8 993609
18:00−5з4109395 0.4 996498
21:00−8зюз4109496 0.5 998420
2 февраля, ср
ср200:00−13юз389767 0.0 1000129
03:00−10ююз3996100 0.1 1000276
06:00−10ю3995100 0.1 1001245
09:00−11ю3896100 0.1 1001216
12:00−8ю3894100 0.1 1002326
15:00−6ю3694100 0.3 1002396
18:00−7ююв2797100 0.2 1003222
21:00−7ю289688 0.3 1004225